DECAYED
Showing default

CSIM, 43793 (Decayed)

Orbit data source: Space-Track

CSIM, 43793 was a payload satellite owned by CU-LASP (US) in LEO that was launched on Mon, 03 Dec 2018 UTC via an FALCON 9 launch vehicle from the Air Force Western Test Range (AFWTR). Payload-class satellites include a variety of spacecraft equipped with specific instruments for various scientific and technological missions. These include communications satellites like Starlink; space stations such as the ISS; scientific satellites like the Hubble; Earth observation satellites from companies like Planet Labs, Umbra, and HawkEye 360; GPS; miniature CubeSats for education and research; and military/defense satellites.

Not visible in the next 10 days
Identifier
43793, 2018-099AM
Orbit
Decayed
Country
Flag of USUS
Related business
Manufacturer
Blue Canyon
Mission
Decayed Amateur Astronomy
Bus & Motor
CUBESAT 6U, Unknown motor
Mass
10 kg wet, 10 kg dry
Launch date (UTC)
2018-12-03 (8 years ago)
Launch vehicle
FALCON 9
Launch site
Air Force Western Test Range (AFWTR)
Object type
Payload
Rocket body
Debris
Shape & HBR
Box + 2 Pan, 0.6 m
Radar Cross Section
0.143 m², Medium (>0.1 m² and < 1m²)

Expand to show TLE details & history
Last TLE update: 1 year ago

TLE from 1 year ago
0 CSIM
1 43793U 18099AM  25221.21166546  .13619297  25930-5  68059-3 0  9999
2 43793  97.4554 304.9540 0017217 272.8328  87.1002 16.40904822367265
Epoch: 2025-08-09T05:04Z
TLE epoch observation values (Epoch: 2025-08-09T05:04:47.895Z)
Latitude
0.00004°
Longitude
-89.19619°
Altitude
166.097 km
Speed
7.807 km/s
True Right ascension
20h 19m 48s
True Declination
0° 00' 00"
Sunlit
Object was in full shadow at epoch
Visualization orbit readout
Latitude
Unknown
Longitude
Unknown
Altitude
Unknown
Speed
Unknown
Apparent Right ascension
Unknown
Apparent Declination
Unknown
Sunlit
N/A
Visualization observer readout
Local Sidereal Time
15:05:41
Azimuth
Unknown
Elevation
Unknown
Doppler factor
Unknown
Orbital elements
Apogee altitude
171.463 km
Perigee altitude
148.948 km
Semi-major axis
6,538.343 km
Eccentricity
0.00172
Inclination
97.4554°
RAAN
304.954°
Arg. of periapsis
272.8328°
True anomaly
87.29726°
Mean anomaly
87.1002°
Eccentric anomaly
87.19873°
Mean motion
4.10527 °/min
Orbital period
87.69 mins
BSTAR
0.00068059
Loading maneuver chart data...
Computing Atmospheric mass density...

Documentation

Showing up to 5 results
|